| time (UTC) | temp F | wind direction | speed MPH | gust MPH | rain 1hr in | rain 24hr in | rain mn in | humidity % | barometer mb |
| 20260902101033 | 68 | 50 | 3.0 | 9.0 | 0.00 | 0.00 | 0.00 | 75 | 1020.0 |
| 20260902100533 | 68 | 324 | 2.0 | 11.0 | 0.00 | 0.00 | 0.00 | 75 | 1020.1 |
| 20260902100035 | 68 | 329 | 4.0 | 11.0 | 0.00 | 0.00 | 0.00 | 74 | 1020.0 |
| 20260902095532 | 68 | 126 | 2.0 | 12.0 | 0.00 | 0.00 | 0.00 | 74 | 1020.0 |
| 20260902095032 | 69 | 32 | 3.0 | 12.0 | 0.00 | 0.00 | 0.00 | 75 | 1019.9 |
| 20260902094532 | 69 | 223 | 3.0 | 10.0 | 0.00 | 0.00 | 0.00 | 74 | 1019.9 |
| 20260902094032 | 69 | 21 | 2.0 | 10.0 | 0.00 | 0.00 | 0.00 | 73 | 1019.9 |
| 20260902093533 | 69 | 119 | 1.0 | 12.0 | 0.00 | 0.00 | 0.00 | 74 | 1019.9 |
| 20260902093031 | 69 | 302 | 1.0 | 12.0 | 0.00 | 0.00 | 0.00 | 75 | 1019.8 |
| 20260902092530 | 68 | 329 | 2.0 | 12.0 | 0.00 | 0.00 | 0.00 | 75 | 1019.9 |
| 20260902092029 | 68 | 163 | 2.0 | 10.0 | 0.00 | 0.00 | 0.00 | 73 | 1019.9 |
| 20260902091529 | 68 | 312 | 2.0 | 10.0 | 0.00 | 0.00 | 0.00 | 74 | 1019.8 |
| 20260902091032 | 68 | 162 | 1.0 | 8.0 | 0.00 | 0.00 | 0.00 | 76 | 1019.9 |
| 20260902090528 | 68 | 204 | 1.0 | 6.0 | 0.00 | 0.00 | 0.00 | 79 | 1019.8 |
| 20260902090035 | 68 | 227 | 1.0 | 4.0 | 0.00 | 0.00 | 0.00 | 81 | 1019.8 |
| 20260902085525 | 68 | 314 | 1.0 | 4.0 | 0.00 | 0.00 | 0.00 | 82 | 1019.7 |
| 20260902085024 | 68 | 192 | 0.0 | 3.0 | 0.00 | 0.00 | 0.00 | 82 | 1019.7 |
| 20260902084524 | 67 | 224 | 0.0 | 3.0 | 0.00 | 0.00 | 0.00 | 83 | 1019.8 |
| 20260902084024 | 68 | 233 | 0.0 | 4.0 | 0.00 | 0.00 | 0.00 | 83 | 1019.7 |
| 20260902083524 | 67 | 152 | 0.0 | 4.0 | 0.00 | 0.00 | 0.00 | 84 | 1019.7 |
| 20260902083021 | 67 | 160 | 0.0 | 3.0 | 0.00 | 0.00 | 0.00 | 84 | 1019.6 |
| 20260902082523 | 67 | 235 | 0.0 | 3.0 | 0.00 | 0.00 | 0.00 | 85 | 1019.5 |
| 20260902082020 | 67 | 138 | 0.0 | 4.0 | 0.00 | 0.00 | 0.00 | 86 | 1019.4 |
| 20260902081519 | 66 | 257 | 1.0 | 4.0 | 0.00 | 0.00 | 0.00 | 85 | 1019.4 |
| 20260902081018 | 66 | 189 | 0.0 | 4.0 | 0.00 | 0.00 | 0.00 | 86 | 1019.5 |
| 20260902080517 | 66 | 128 | 1.0 | 3.0 | 0.00 | 0.00 | 0.00 | 87 | 1019.4 |
| 20260902080015 | 66 | 347 | 1.0 | 4.0 | 0.00 | 0.00 | 0.00 | 88 | 1019.6 |
| 20260902075513 | 66 | 248 | 0.0 | 3.0 | 0.00 | 0.00 | 0.00 | 89 | 1019.4 |
| 20260902075012 | 65 | 196 | 0.0 | 3.0 | 0.00 | 0.00 | 0.00 | 90 | 1019.4 |
| 20260902074515 | 64 | 222 | 1.0 | 3.0 | 0.00 | 0.00 | 0.00 | 91 | 1019.4 |
| 20260902074009 | 64 | 175 | 0.0 | 3.0 | 0.00 | 0.00 | 0.00 | 91 | 1019.5 |
| 20260902073508 | 63 | 97 | 0.0 | 4.0 | 0.00 | 0.00 | 0.00 | 91 | 1019.3 |
| 20260902073007 | 63 | 111 | 1.0 | 4.0 | 0.00 | 0.00 | 0.00 | 92 | 1019.2 |
| 20260902072505 | 63 | 116 | 0.0 | 6.0 | 0.00 | 0.00 | 0.00 | 92 | 1019.2 |
| 20260902072004 | 62 | 214 | 2.0 | 6.0 | 0.00 | 0.00 | 0.00 | 92 | 1019.2 |
| 20260902071504 | 62 | 75 | 1.0 | 4.0 | 0.00 | 0.00 | 0.00 | 93 | 1019.2 |
| 20260902071001 | 62 | 226 | 0.0 | 3.0 | 0.00 | 0.00 | 0.00 | 93 | 1019.2 |
| 20260902070502 | 62 | 274 | 1.0 | 4.0 | 0.00 | 0.00 | 0.00 | 93 | 1019.2 |
| 20260902065602 | 61 | 147 | 1.0 | 6.0 | 0.00 | 0.00 | 0.00 | 93 | 1019.1 |
| 20260902065100 | 61 | 193 | 1.0 | 3.0 | 0.00 | 0.00 | 0.00 | 93 | 1019.0 |
| 20260902064557 | 61 | 167 | 1.0 | 4.0 | 0.00 | 0.00 | 0.00 | 93 | 1019.1 |
| 20260902064057 | 61 | 157 | 1.0 | 4.0 | 0.00 | 0.00 | 0.00 | 94 | 1019.0 |
| 20260902063555 | 61 | 113 | 0.0 | 4.0 | 0.00 | 0.00 | 0.00 | 93 | 1019.1 |
| 20260902063104 | 60 | 115 | 1.0 | 4.0 | 0.00 | 0.00 | 0.00 | 94 | 1019.1 |
| 20260902062552 | 60 | 94 | 1.0 | 4.0 | 0.00 | 0.00 | 0.00 | 94 | 1019.1 |
| 20260902062052 | 60 | 242 | 0.0 | 4.0 | 0.00 | 0.00 | 0.00 | 94 | 1019.1 |
| 20260902061614 | 60 | 114 | 0.0 | 4.0 | 0.00 | 0.00 | 0.00 | 94 | 1019.0 |
| 20260902061054 | 59 | 124 | 1.0 | 4.0 | 0.00 | 0.00 | 0.00 | 94 | 1019.0 |
| 20260902060552 | 59 | 121 | 1.0 | 4.0 | 0.00 | 0.00 | 0.00 | 93 | 1019.1 |
| 20260902055551 | 59 | 144 | 0.0 | 4.0 | 0.00 | 0.00 | 0.00 | 93 | 1019.0 |
| 20260902055051 | 59 | 115 | 1.0 | 3.0 | 0.00 | 0.00 | 0.00 | 93 | 1019.0 |
| 20260902054549 | 59 | 116 | 0.0 | 3.0 | 0.00 | 0.00 | 0.00 | 93 | 1019.0 |
| 20260902054048 | 59 | 122 | 0.0 | 3.0 | 0.00 | 0.00 | 0.00 | 93 | 1019.0 |
| 20260902053547 | 59 | 122 | 0.0 | 3.0 | 0.00 | 0.00 | 0.00 | 92 | 1019.0 |
| 20260902053047 | 59 | 107 | 0.0 | 2.0 | 0.00 | 0.00 | 0.00 | 92 | 1019.0 |
| 20260902052548 | 59 | 107 | 1.0 | 3.0 | 0.00 | 0.00 | 0.00 | 92 | 1018.9 |
| 20260902052045 | 59 | 107 | 0.0 | 3.0 | 0.00 | 0.00 | 0.00 | 92 | 1019.0 |
| 20260902051546 | 59 | 130 | 0.0 | 3.0 | 0.00 | 0.00 | 0.00 | 92 | 1019.0 |
| 20260902051044 | 59 | 121 | 1.0 | 3.0 | 0.00 | 0.00 | 0.00 | 92 | 1019.0 |
| 20260902050545 | 59 | 120 | 0.0 | 4.0 | 0.00 | 0.00 | 0.00 | 92 | 1018.9 |
| 20260902050043 | 59 | 120 | 0.0 | 4.0 | 0.00 | 0.00 | 0.00 | 92 | 1018.9 |
| 20260902045543 | 60 | 118 | 1.0 | 4.0 | 0.00 | 0.00 | 0.00 | 92 | 1018.9 |
| 20260902045043 | 60 | 153 | 0.0 | 2.0 | 0.00 | 0.00 | 0.00 | 92 | 1018.9 |
| 20260902044543 | 60 | 142 | 1.0 | 3.0 | 0.00 | 0.00 | 0.00 | 92 | 1018.8 |
| 20260902044044 | 60 | 111 | 0.0 | 3.0 | 0.00 | 0.00 | 0.00 | 92 | 1018.9 |
| 20260902043543 | 60 | 126 | 0.0 | 5.0 | 0.00 | 0.00 | 0.00 | 92 | 1018.8 |
| 20260902043044 | 59 | 84 | 1.0 | 5.0 | 0.00 | 0.00 | 0.00 | 92 | 1018.8 |
| 20260902042544 | 60 | 130 | 1.0 | 4.0 | 0.00 | 0.00 | 0.00 | 91 | 1018.9 |
| 20260902042042 | 60 | 101 | 1.0 | 4.0 | 0.00 | 0.00 | 0.00 | 91 | 1018.8 |
| 20260902041553 | 60 | 122 | 0.0 | 2.0 | 0.00 | 0.00 | 0.00 | 91 | 1018.9 |
| 20260902041042 | 60 | 119 | 0.0 | 3.0 | 0.00 | 0.00 | 0.00 | 91 | 1018.9 |
| 20260902040542 | 60 | 119 | 1.0 | 3.0 | 0.00 | 0.00 | 0.00 | 91 | 1018.8 |
| 20260902040041 | 60 | 114 | 0.0 | 3.0 | 0.00 | 0.00 | 0.00 | 91 | 1018.8 |
| 20260902035541 | 60 | 148 | 0.0 | 3.0 | 0.00 | 0.00 | 0.00 | 91 | 1018.9 |
| 20260902035040 | 60 | 123 | 1.0 | 2.0 | 0.00 | 0.00 | 0.00 | 91 | 1018.9 |
| 20260902034540 | 60 | 123 | 0.0 | 2.0 | 0.00 | 0.00 | 0.00 | 91 | 1018.9 |
| 20260902034040 | 60 | 123 | 0.0 | 2.0 | 0.00 | 0.00 | 0.00 | 91 | 1019.0 |
| 20260902033540 | 60 | 123 | 0.0 | 2.0 | 0.00 | 0.00 | 0.00 | 91 | 1019.1 |
| 20260902033039 | 60 | 123 | 0.0 | 2.0 | 0.00 | 0.00 | 0.00 | 91 | 1019.0 |
| 20260902032538 | 60 | 124 | 0.0 | 3.0 | 0.00 | 0.00 | 0.00 | 91 | 1019.0 |
| 20260902032036 | 60 | 116 | 0.0 | 3.0 | 0.00 | 0.00 | 0.00 | 91 | 1019.1 |
| 20260902031536 | 60 | 115 | 1.0 | 3.0 | 0.00 | 0.00 | 0.00 | 90 | 1019.1 |
| 20260902031034 | 60 | 119 | 1.0 | 4.0 | 0.00 | 0.00 | 0.00 | 90 | 1019.1 |
| 20260902030534 | 60 | 115 | 1.0 | 3.0 | 0.00 | 0.00 | 0.00 | 90 | 1019.1 |
| 20260902030030 | 60 | 121 | 0.0 | 3.0 | 0.00 | 0.00 | 0.00 | 90 | 1019.2 |
| 20260902025531 | 59 | 131 | 0.0 | 3.0 | 0.00 | 0.00 | 0.00 | 90 | 1019.2 |
| 20260902025029 | 59 | 138 | 0.0 | 2.0 | 0.00 | 0.00 | 0.00 | 90 | 1019.2 |
| 20260902024528 | 59 | 134 | 0.0 | 3.0 | 0.00 | 0.00 | 0.00 | 90 | 1019.3 |
| 20260902024028 | 59 | 119 | 1.0 | 3.0 | 0.00 | 0.00 | 0.00 | 90 | 1019.3 |
| 20260902023528 | 59 | 130 | 0.0 | 1.0 | 0.00 | 0.00 | 0.00 | 90 | 1019.3 |
| 20260902023028 | 59 | 127 | 0.0 | 2.0 | 0.00 | 0.00 | 0.00 | 90 | 1019.4 |
| 20260902022530 | 59 | 127 | 0.0 | 2.0 | 0.00 | 0.00 | 0.00 | 90 | 1019.4 |
| 20260902022027 | 60 | 127 | 0.0 | 2.0 | 0.00 | 0.00 | 0.00 | 90 | 1019.4 |
| 20260902021529 | 60 | 127 | 0.0 | 3.0 | 0.00 | 0.00 | 0.00 | 89 | 1019.5 |
| 20260902021026 | 59 | 127 | 0.0 | 3.0 | 0.00 | 0.00 | 0.00 | 89 | 1019.5 |
| 20260902020526 | 60 | 149 | 0.0 | 3.0 | 0.00 | 0.00 | 0.00 | 89 | 1019.5 |
| 20260902020043 | 59 | 113 | 1.0 | 4.0 | 0.00 | 0.00 | 0.00 | 89 | 1019.4 |
| 20260902015525 | 59 | 107 | 1.0 | 4.0 | 0.00 | 0.13 | 0.00 | 89 | 1019.3 |
| 20260902015024 | 59 | 116 | 1.0 | 4.0 | 0.00 | 0.13 | 0.00 | 89 | 1019.4 |
| 20260902014524 | 59 | 115 | 0.0 | 4.0 | 0.00 | 0.13 | 0.00 | 89 | 1019.5 |
| 20260902014023 | 59 | 121 | 1.0 | 3.0 | 0.00 | 0.13 | 0.00 | 89 | 1019.5 |
| 20260902013525 | 59 | 121 | 0.0 | 2.0 | 0.00 | 0.13 | 0.00 | 89 | 1019.5 |
| 20260902013024 | 59 | 121 | 0.0 | 3.0 | 0.00 | 0.13 | 0.00 | 89 | 1019.5 |
| 20260902012520 | 59 | 121 | 0.0 | 3.0 | 0.00 | 0.13 | 0.00 | 89 | 1019.6 |
| 20260902012024 | 59 | 121 | 0.0 | 2.0 | 0.00 | 0.13 | 0.00 | 89 | 1019.7 |
| 20260902011521 | 59 | 121 | 0.0 | 3.0 | 0.00 | 0.13 | 0.00 | 89 | 1019.6 |
| 20260902011021 | 59 | 121 | 0.0 | 3.0 | 0.00 | 0.13 | 0.00 | 89 | 1019.7 |
| 20260902010521 | 59 | 121 | 0.0 | 3.0 | 0.00 | 0.13 | 0.00 | 88 | 1019.7 |
| 20260902010031 | 59 | 121 | 1.0 | 3.0 | 0.00 | 0.13 | 0.00 | 88 | 1019.7 |
| 20260902005523 | 59 | 120 | 1.0 | 3.0 | 0.00 | 0.13 | 0.00 | 88 | 1019.6 |
| 20260902005019 | 59 | 118 | 0.0 | 3.0 | 0.00 | 0.13 | 0.00 | 88 | 1019.6 |
| 20260902004519 | 59 | 117 | 0.0 | 3.0 | 0.00 | 0.13 | 0.00 | 88 | 1019.7 |
| 20260902004022 | 59 | 118 | 0.0 | 3.0 | 0.00 | 0.13 | 0.00 | 88 | 1019.7 |
| 20260902003518 | 59 | 118 | 0.0 | 3.0 | 0.00 | 0.13 | 0.00 | 88 | 1019.7 |
| 20260902003017 | 59 | 118 | 1.0 | 3.0 | 0.00 | 0.13 | 0.00 | 88 | 1019.7 |
| 20260902002518 | 59 | 132 | 0.0 | 3.0 | 0.00 | 0.13 | 0.00 | 88 | 1019.8 |
| 20260902002017 | 58 | 132 | 0.0 | 2.0 | 0.00 | 0.13 | 0.00 | 88 | 1019.8 |
| 20260902001519 | 58 | 132 | 0.0 | 2.0 | 0.00 | 0.13 | 0.00 | 88 | 1019.7 |
| 20260902001018 | 58 | 132 | 0.0 | 2.0 | 0.00 | 0.13 | 0.00 | 88 | 1019.9 |
| 20260902000517 | 58 | 132 | 0.0 | 2.0 | 0.00 | 0.13 | 0.00 | 88 | 1019.8 |
| 20260902000026 | 58 | 144 | 0.0 | 2.0 | 0.00 | 0.13 | 0.00 | 88 | 1019.8 |
| 20260901235515 | 58 | 147 | 1.0 | 2.0 | 0.00 | 0.13 | 0.00 | 88 | 1019.9 |
| 20260901235015 | 58 | 147 | 0.0 | 2.0 | 0.00 | 0.13 | 0.00 | 88 | 1019.8 |
| 20260901234515 | 58 | 147 | 0.0 | 2.0 | 0.00 | 0.13 | 0.00 | 88 | 1019.9 |
| 20260901234016 | 58 | 155 | 0.0 | 2.0 | 0.00 | 0.13 | 0.00 | 88 | 1019.9 |
| 20260901233519 | 58 | 155 | 0.0 | 2.0 | 0.00 | 0.13 | 0.00 | 88 | 1019.9 |
| 20260901233014 | 58 | 157 | 0.0 | 2.0 | 0.00 | 0.13 | 0.00 | 87 | 1019.9 |
| 20260901232513 | 58 | 144 | 0.0 | 3.0 | 0.00 | 0.13 | 0.00 | 87 | 1020.1 |
| 20260901232013 | 58 | 118 | 0.0 | 3.0 | 0.00 | 0.13 | 0.00 | 87 | 1020.1 |
| 20260901231518 | 59 | 118 | 0.0 | 3.0 | 0.00 | 0.13 | 0.00 | 87 | 1020.1 |
| 20260901231015 | 59 | 118 | 0.0 | 2.0 | 0.00 | 0.13 | 0.00 | 87 | 1020.1 |
| 20260901230511 | 59 | 118 | 0.0 | 1.0 | 0.00 | 0.13 | 0.00 | 87 | 1020.2 |
| 20260901230011 | 59 | 109 | 0.0 | 2.0 | 0.00 | 0.13 | 0.00 | 87 | 1020.3 |
| 20260901225510 | 59 | 109 | 0.0 | 3.0 | 0.00 | 0.13 | 0.00 | 87 | 1020.2 |
| 20260901225010 | 59 | 118 | 0.0 | 2.0 | 0.00 | 0.13 | 0.00 | 87 | 1020.2 |
| 20260901224514 | 59 | 118 | 0.0 | 2.0 | 0.00 | 0.13 | 0.00 | 86 | 1020.2 |
| 20260901224010 | 59 | 118 | 0.0 | 2.0 | 0.00 | 0.13 | 0.00 | 87 | 1020.3 |
| 20260901223509 | 59 | 118 | 0.0 | 2.0 | 0.00 | 0.13 | 0.00 | 87 | 1020.2 |
| 20260901223008 | 59 | 118 | 0.0 | 3.0 | 0.00 | 0.13 | 0.00 | 87 | 1020.3 |
| 20260901222511 | 59 | 118 | 1.0 | 3.0 | 0.00 | 0.13 | 0.00 | 87 | 1020.3 |
| 20260901222007 | 59 | 153 | 0.0 | 2.0 | 0.00 | 0.13 | 0.00 | 87 | 1020.1 |
| 20260901221517 | 59 | 153 | 0.0 | 2.0 | 0.00 | 0.13 | 0.00 | 87 | 1020.2 |
| 20260901221006 | 59 | 192 | 0.0 | 0.0 | 0.00 | 0.13 | 0.00 | 87 | 1020.3 |
| 20260901220505 | 59 | 202 | 0.0 | 0.0 | 0.00 | 0.13 | 0.00 | 87 | 1020.3 |
| 20260901220004 | 59 | 238 | 0.0 | 0.0 | 0.00 | 0.13 | 0.00 | 87 | 1020.2 |
| 20260901215504 | 59 | 238 | 0.0 | 0.0 | 0.00 | 0.13 | 0.13 | 87 | 1020.3 |
| 20260901215007 | 59 | 238 | 0.0 | 1.0 | 0.00 | 0.13 | 0.13 | 87 | 1020.3 |
| 20260901214504 | 59 | 238 | 0.0 | 1.0 | 0.00 | 0.13 | 0.13 | 87 | 1020.4 |
| 20260901214007 | 59 | 238 | 0.0 | 1.0 | 0.00 | 0.13 | 0.13 | 87 | 1020.4 |
| 20260901213504 | 59 | 238 | 0.0 | 0.0 | 0.00 | 0.13 | 0.13 | 87 | 1020.3 |
| 20260901213003 | 59 | 238 | 0.0 | 0.0 | 0.00 | 0.13 | 0.13 | 87 | 1020.1 |
| 20260901212503 | 59 | 238 | 0.0 | 0.0 | 0.00 | 0.13 | 0.13 | 87 | 1020.1 |
| 20260901212005 | 59 | 238 | 0.0 | 1.0 | 0.00 | 0.13 | 0.13 | 87 | 1020.3 |
| 20260901211503 | 59 | 238 | 0.0 | 1.0 | 0.00 | 0.13 | 0.13 | 87 | 1020.4 |
| 20260901211003 | 59 | 238 | 0.0 | 0.0 | 0.00 | 0.13 | 0.13 | 87 | 1020.6 |
| 20260901210503 | 59 | 238 | 0.0 | 0.0 | 0.00 | 0.13 | 0.13 | 87 | 1020.7 |
| 20260901210002 | 59 | 238 | 0.0 | 0.0 | 0.00 | 0.13 | 0.13 | 86 | 1020.6 |
| 20260901205502 | 59 | 238 | 0.0 | 1.0 | 0.00 | 0.13 | 0.13 | 86 | 1020.7 |
| 20260901205004 | 59 | 238 | 0.0 | 1.0 | 0.00 | 0.13 | 0.13 | 86 | 1020.9 |
| 20260901204502 | 59 | 238 | 0.0 | 0.0 | 0.00 | 0.13 | 0.13 | 86 | 1020.9 |
| 20260901204001 | 59 | 238 | 0.0 | 1.0 | 0.00 | 0.13 | 0.13 | 86 | 1020.9 |
| 20260901203502 | 59 | 238 | 0.0 | 1.0 | 0.00 | 0.13 | 0.13 | 86 | 1020.9 |
| 20260901203001 | 59 | 238 | 0.0 | 1.0 | 0.00 | 0.13 | 0.13 | 86 | 1020.8 |
| 20260901202501 | 59 | 238 | 0.0 | 0.0 | 0.00 | 0.13 | 0.13 | 86 | 1020.9 |
| 20260901202002 | 59 | 238 | 0.0 | 0.0 | 0.00 | 0.13 | 0.13 | 85 | 1020.8 |
| 20260901201502 | 59 | 238 | 0.0 | 0.0 | 0.00 | 0.13 | 0.13 | 85 | 1020.8 |
| 20260901201001 | 59 | 238 | 0.0 | 0.0 | 0.00 | 0.13 | 0.13 | 85 | 1020.8 |
| 20260901200600 | 59 | 238 | 0.0 | 0.0 | 0.00 | 0.13 | 0.13 | 85 | 1020.7 |
| 20260901200105 | 59 | 238 | 0.0 | 0.0 | 0.00 | 0.13 | 0.13 | 84 | 1020.8 |
| 20260901195603 | 59 | 238 | 0.0 | 0.0 | 0.00 | 0.13 | 0.13 | 84 | 1020.7 |
| 20260901195059 | 60 | 238 | 0.0 | 0.0 | 0.00 | 0.13 | 0.13 | 84 | 1020.8 |
| 20260901194608 | 60 | 238 | 0.0 | 0.0 | 0.00 | 0.13 | 0.13 | 84 | 1020.8 |
| 20260901194058 | 60 | 238 | 0.0 | 1.0 | 0.00 | 0.13 | 0.13 | 83 | 1020.8 |
| 20260901193558 | 60 | 238 | 0.0 | 1.0 | 0.00 | 0.13 | 0.13 | 84 | 1020.7 |
| 20260901193059 | 60 | 238 | 0.0 | 0.0 | 0.00 | 0.13 | 0.13 | 84 | 1020.7 |
| 20260901192557 | 60 | 238 | 0.0 | 0.0 | 0.00 | 0.13 | 0.13 | 83 | 1020.5 |
| 20260901192058 | 60 | 238 | 0.0 | 0.0 | 0.00 | 0.13 | 0.13 | 82 | 1020.4 |
| 20260901191605 | 60 | 238 | 0.0 | 0.0 | 0.00 | 0.13 | 0.13 | 81 | 1020.4 |
| 20260901191059 | 60 | 238 | 0.0 | 1.0 | 0.00 | 0.13 | 0.13 | 81 | 1020.4 |
| 20260901190559 | 61 | 238 | 0.0 | 1.0 | 0.00 | 0.13 | 0.13 | 80 | 1020.4 |
| 20260901190112 | 61 | 238 | 0.0 | 0.0 | 0.00 | 0.13 | 0.13 | 80 | 1020.3 |
| 20260901185601 | 61 | 238 | 0.0 | 0.0 | 0.00 | 0.13 | 0.13 | 79 | 1020.3 |
| 20260901185056 | 61 | 238 | 0.0 | 0.0 | 0.00 | 0.13 | 0.13 | 79 | 1020.3 |
| 20260901184559 | 62 | 238 | 0.0 | 0.0 | 0.00 | 0.13 | 0.13 | 78 | 1020.3 |
| 20260901184057 | 62 | 238 | 0.0 | 0.0 | 0.00 | 0.13 | 0.13 | 78 | 1020.3 |
| 20260901183556 | 62 | 238 | 0.0 | 0.0 | 0.00 | 0.13 | 0.13 | 77 | 1020.4 |
| 20260901183057 | 63 | 241 | 0.0 | 0.0 | 0.00 | 0.13 | 0.13 | 76 | 1020.4 |
| 20260901182556 | 63 | 241 | 0.0 | 0.0 | 0.00 | 0.13 | 0.13 | 75 | 1020.4 |
| 20260901182056 | 63 | 240 | 0.0 | 0.0 | 0.00 | 0.13 | 0.13 | 75 | 1020.3 |
| 20260901181556 | 64 | 240 | 0.0 | 1.0 | 0.00 | 0.13 | 0.13 | 75 | 1020.3 |
| 20260901181055 | 64 | 240 | 0.0 | 1.0 | 0.00 | 0.13 | 0.13 | 74 | 1020.4 |
| 20260901180555 | 64 | 240 | 0.0 | 2.0 | 0.00 | 0.13 | 0.13 | 73 | 1020.3 |
| 20260901180055 | 64 | 240 | 0.0 | 2.0 | 0.00 | 0.13 | 0.13 | 73 | 1020.4 |
| 20260901175554 | 65 | 242 | 0.0 | 3.0 | 0.00 | 0.13 | 0.13 | 72 | 1020.4 |
| 20260901175054 | 65 | 271 | 0.0 | 4.0 | 0.00 | 0.13 | 0.13 | 72 | 1020.4 |
| 20260901174611 | 65 | 323 | 0.0 | 4.0 | 0.00 | 0.13 | 0.13 | 71 | 1020.5 |
| 20260901174054 | 65 | 247 | 1.0 | 5.0 | 0.00 | 0.13 | 0.13 | 71 | 1020.6 |
| 20260901173553 | 65 | 325 | 2.0 | 8.0 | 0.00 | 0.13 | 0.13 | 71 | 1020.5 |
| 20260901173054 | 66 | 314 | 2.0 | 8.0 | 0.00 | 0.13 | 0.13 | 70 | 1020.6 |
| 20260901172554 | 66 | 313 | 3.0 | 9.0 | 0.00 | 0.13 | 0.13 | 70 | 1020.7 |
| 20260901172054 | 66 | 318 | 4.0 | 10.0 | 0.00 | 0.13 | 0.13 | 69 | 1020.6 |
| 20260901171557 | 66 | 320 | 2.0 | 11.0 | 0.00 | 0.13 | 0.13 | 70 | 1020.6 |
| 20260901171154 | 66 | 217 | 2.0 | 11.0 | 0.00 | 0.13 | 0.13 | 69 | 1020.6 |
| 20260901170553 | 66 | 310 | 2.0 | 8.0 | 0.00 | 0.13 | 0.13 | 69 | 1020.7 |
| 20260901170058 | 66 | 194 | 1.0 | 8.0 | 0.00 | 0.13 | 0.13 | 68 | 1020.7 |
| 20260901165552 | 66 | 202 | 2.0 | 8.0 | 0.00 | 0.13 | 0.13 | 68 | 1020.8 |
| 20260901165051 | 67 | 5 | 3.0 | 8.0 | 0.00 | 0.13 | 0.13 | 70 | 1020.7 |
| 20260901164551 | 67 | 332 | 1.0 | 11.0 | 0.00 | 0.13 | 0.13 | 70 | 1020.7 |
| 20260901164052 | 67 | 198 | 2.0 | 11.0 | 0.00 | 0.13 | 0.13 | 69 | 1020.7 |
| 20260901163550 | 67 | 271 | 2.0 | 10.0 | 0.00 | 0.13 | 0.13 | 68 | 1020.6 |
| 20260901163050 | 67 | 5 | 3.0 | 8.0 | 0.00 | 0.13 | 0.13 | 68 | 1020.6 |
| 20260901162549 | 67 | 355 | 3.0 | 11.0 | 0.00 | 0.13 | 0.13 | 69 | 1020.6 |
| 20260901162049 | 67 | 340 | 5.0 | 12.0 | 0.00 | 0.13 | 0.13 | 68 | 1020.6 |
| 20260901161650 | 67 | 318 | 5.0 | 13.0 | 0.00 | 0.13 | 0.13 | 68 | 1020.6 |
| 20260901161048 | 67 | 319 | 3.0 | 12.0 | 0.00 | 0.13 | 0.13 | 67 | 1020.6 |
| 20260901160548 | 68 | 24 | 2.0 | 11.0 | 0.00 | 0.13 | 0.13 | 67 | 1020.6 |
| 20260901160048 | 68 | 14 | 4.0 | 13.0 | 0.00 | 0.13 | 0.13 | 67 | 1020.5 |
| 20260901155548 | 68 | 347 | 4.0 | 13.0 | 0.00 | 0.13 | 0.13 | 67 | 1020.5 |
| 20260901155047 | 68 | 321 | 2.0 | 11.0 | 0.00 | 0.13 | 0.13 | 66 | 1020.5 |
| 20260901154547 | 68 | 319 | 2.0 | 11.0 | 0.00 | 0.13 | 0.13 | 65 | 1020.6 |
| 20260901154048 | 68 | 321 | 2.0 | 8.0 | 0.00 | 0.13 | 0.13 | 68 | 1020.5 |
| 20260901153549 | 68 | 274 | 2.0 | 8.0 | 0.00 | 0.13 | 0.13 | 68 | 1020.5 |
| 20260901153048 | 67 | 313 | 4.0 | 11.0 | 0.00 | 0.13 | 0.13 | 67 | 1020.5 |
| 20260901152547 | 67 | 338 | 5.0 | 11.0 | 0.00 | 0.13 | 0.13 | 67 | 1020.5 |
| 20260901152046 | 68 | 315 | 3.0 | 14.0 | 0.00 | 0.13 | 0.13 | 66 | 1020.6 |
| 20260901151547 | 68 | 315 | 3.0 | 14.0 | 0.00 | 0.13 | 0.13 | 67 | 1020.5 |
| 20260901151050 | 68 | 316 | 4.0 | 10.0 | 0.00 | 0.13 | 0.13 | 65 | 1020.5 |
| 20260901150545 | 68 | 245 | 2.0 | 9.0 | 0.00 | 0.13 | 0.13 | 66 | 1020.5 |
| 20260901150048 | 68 | 347 | 1.0 | 10.0 | 0.00 | 0.13 | 0.13 | 66 | 1020.4 |
| 20260901145546 | 68 | 325 | 5.0 | 10.0 | 0.00 | 0.13 | 0.13 | 65 | 1020.3 |
| 20260901145045 | 69 | 338 | 3.0 | 10.0 | 0.00 | 0.13 | 0.13 | 64 | 1020.3 |
| 20260901144545 | 69 | 360 | 2.0 | 8.0 | 0.00 | 0.13 | 0.13 | 65 | 1020.4 |
| 20260901144045 | 69 | 315 | 2.0 | 10.0 | 0.00 | 0.13 | 0.13 | 65 | 1020.3 |
| 20260901143549 | 69 | 311 | 3.0 | 10.0 | 0.00 | 0.13 | 0.13 | 64 | 1020.4 |
| 20260901143054 | 70 | 285 | 3.0 | 9.0 | 0.00 | 0.13 | 0.13 | 63 | 1020.4 |
| 20260901142544 | 69 | 181 | 1.0 | 11.0 | 0.00 | 0.13 | 0.13 | 66 | 1020.5 |
| 20260901142044 | 69 | 301 | 4.0 | 11.0 | 0.00 | 0.13 | 0.13 | 64 | 1020.5 |
| 20260901141548 | 70 | 323 | 3.0 | 8.0 | 0.00 | 0.13 | 0.13 | 65 | 1020.5 |
| 20260901141045 | 70 | 135 | 2.0 | 6.0 | 0.00 | 0.13 | 0.13 | 64 | 1020.5 |
| 20260901140545 | 69 | 10 | 2.0 | 7.0 | 0.00 | 0.13 | 0.13 | 66 | 1020.4 |
| 20260901140043 | 69 | 317 | 1.0 | 10.0 | 0.00 | 0.13 | 0.13 | 67 | 1020.4 |
| 20260901135543 | 68 | 331 | 2.0 | 11.0 | 0.00 | 0.13 | 0.13 | 66 | 1020.5 |
| 20260901135042 | 69 | 343 | 3.0 | 10.0 | 0.00 | 0.13 | 0.13 | 66 | 1020.6 |
| 20260901134542 | 68 | 360 | 2.0 | 10.0 | 0.00 | 0.13 | 0.13 | 69 | 1020.5 |
| 20260901134042 | 68 | 355 | 3.0 | 12.0 | 0.00 | 0.13 | 0.13 | 67 | 1020.4 |
| 20260901133542 | 67 | 320 | 4.0 | 13.0 | 0.00 | 0.13 | 0.13 | 68 | 1020.4 |
| 20260901133052 | 67 | 315 | 3.0 | 13.0 | 0.00 | 0.13 | 0.13 | 68 | 1020.6 |
| 20260901132541 | 67 | 325 | 4.0 | 15.0 | 0.00 | 0.13 | 0.13 | 66 | 1020.5 |
| 20260901132044 | 68 | 317 | 6.0 | 15.0 | 0.00 | 0.13 | 0.13 | 65 | 1020.5 |
| 20260901131541 | 68 | 355 | 5.0 | 14.0 | 0.00 | 0.13 | 0.13 | 65 | 1020.4 |
| 20260901131040 | 69 | 14 | 4.0 | 14.0 | 0.00 | 0.13 | 0.13 | 65 | 1020.3 |
| 20260901130540 | 69 | 10 | 3.0 | 12.0 | 0.00 | 0.13 | 0.13 | 64 | 1020.3 |
| 20260901130041 | 69 | 338 | 5.0 | 11.0 | 0.00 | 0.13 | 0.13 | 63 | 1020.4 |
| 20260901125538 | 69 | 326 | 1.0 | 9.0 | 0.00 | 0.13 | 0.13 | 67 | 1020.4 |
| 20260901125040 | 69 | 355 | 2.0 | 12.0 | 0.00 | 0.13 | 0.13 | 66 | 1020.4 |
| 20260901124537 | 68 | 337 | 6.0 | 12.0 | 0.00 | 0.13 | 0.13 | 64 | 1020.5 |
| 20260901124039 | 69 | 300 | 4.0 | 12.0 | 0.00 | 0.13 | 0.13 | 68 | 1020.5 |
| 20260901123536 | 68 | 296 | 4.0 | 12.0 | 0.00 | 0.13 | 0.13 | 66 | 1020.5 |
| 20260901123036 | 68 | 322 | 4.0 | 12.0 | 0.00 | 0.13 | 0.13 | 65 | 1020.4 |
| 20260901122536 | 68 | 9 | 4.0 | 11.0 | 0.00 | 0.13 | 0.13 | 65 | 1020.4 |
| 20260901122035 | 68 | 317 | 5.0 | 11.0 | 0.00 | 0.13 | 0.13 | 66 | 1020.5 |
| 20260901121534 | 68 | 326 | 2.0 | 11.0 | 0.00 | 0.13 | 0.13 | 69 | 1020.5 |
| 20260901121034 | 67 | 296 | 3.0 | 13.0 | 0.00 | 0.13 | 0.13 | 68 | 1020.4 |
| 20260901120534 | 67 | 321 | 4.0 | 13.0 | 0.00 | 0.13 | 0.13 | 68 | 1020.4 |
| 20260901120036 | 67 | 333 | 5.0 | 12.0 | 0.00 | 0.13 | 0.13 | 70 | 1020.4 |
| 20260901115532 | 66 | 326 | 4.0 | 11.0 | 0.00 | 0.13 | 0.13 | 69 | 1020.4 |
| 20260901115035 | 66 | 317 | 5.0 | 13.0 | 0.00 | 0.13 | 0.13 | 68 | 1020.5 |
| 20260901114533 | 66 | 290 | 4.0 | 14.0 | 0.00 | 0.13 | 0.13 | 70 | 1020.3 |
| 20260901114131 | 66 | 355 | 7.0 | 14.0 | 0.00 | 0.13 | 0.13 | 70 | 1020.4 |
| 20260901113531 | 66 | 342 | 3.0 | 11.0 | 0.00 | 0.13 | 0.13 | 70 | 1020.4 |
| 20260901113031 | 67 | 319 | 4.0 | 13.0 | 0.00 | 0.13 | 0.13 | 68 | 1020.4 |
| 20260901112530 | 67 | 327 | 5.0 | 13.0 | 0.00 | 0.13 | 0.13 | 68 | 1020.3 |
| 20260901112032 | 67 | 55 | 4.0 | 11.0 | 0.00 | 0.13 | 0.13 | 70 | 1020.3 |
| 20260901111529 | 67 | 5 | 3.0 | 14.0 | 0.00 | 0.13 | 0.13 | 70 | 1020.3 |
| 20260901111130 | 67 | 313 | 4.0 | 16.0 | 0.00 | 0.13 | 0.13 | 70 | 1020.3 |
| 20260901110528 | 67 | 310 | 7.0 | 16.0 | 0.00 | 0.13 | 0.13 | 66 | 1020.2 |
| 20260901110027 | 67 | 340 | 7.0 | 14.0 | 0.00 | 0.13 | 0.13 | 67 | 1020.2 |
| 20260901105526 | 66 | 311 | 4.0 | 15.0 | 0.00 | 0.15 | 0.13 | 69 | 1020.3 |
| 20260901105025 | 67 | 299 | 5.0 | 15.0 | 0.00 | 0.15 | 0.13 | 67 | 1020.3 |
| 20260901104539 | 67 | 317 | 4.0 | 13.0 | 0.00 | 0.15 | 0.13 | 70 | 1020.2 |
| 20260901104024 | 67 | 20 | 5.0 | 14.0 | 0.00 | 0.15 | 0.13 | 69 | 1020.2 |
| 20260901103525 | 66 | 231 | 3.0 | 14.0 | 0.00 | 0.15 | 0.13 | 69 | 1020.1 |
| 20260901103024 | 66 | 335 | 6.0 | 13.0 | 0.00 | 0.15 | 0.13 | 70 | 1020.1 |
| 20260901102523 | 66 | 24 | 5.0 | 16.0 | 0.00 | 0.15 | 0.13 | 71 | 1020.1 |
| 20260901102023 | 66 | 48 | 6.0 | 16.0 | 0.00 | 0.15 | 0.13 | 68 | 1020.0 |
| 20260901101522 | 67 | 243 | 7.0 | 15.0 | 0.00 | 0.15 | 0.13 | 68 | 1020.0 |